Regional Weather Roundup
Issued by NWS

Home | Current Version | Previous Version | Text Only | Print | Product List | Glossary Off
Versions: 1 2 3 4 5 6 7 8 9 10 11 12 13 14 15 16 17 18 19 20 21 22 23 24 25 26 27 28 29 30 31 32 33 34 35 36 37 38 39 40 41 42 43 44 45 46 47 48 49 50

000
ASUS43 KLOT 230704
RWRIL

ILLINOIS REGIONAL WEATHER ROUNDUP
NATIONAL WEATHER SERVICE CHICAGO/ROMEOVILLE IL
200 AM CDT MON OCT 23 2017

NOTE: "FAIR" INDICATES FEW OR NO CLOUDS BELOW 12,000 FEET WITH NO
SIGNIFICANT WEATHER AND/OR OBSTRUCTIONS TO VISIBILITY.

* THESE STATIONS ARE NOT UNDER NWS QUALITY CONTROL. THEY ALSO MAY NOT
  REPORT WEATHER SUCH AS PRECIPITATION OR FOG.

ILZ001-002-007-009-015-016-024-230800-
NORTHWEST ILLINOIS

CITY           SKY/WX    TMP DP  RH WIND       PRES   REMARKS
MOLINE         CLOUDY    50  47  89 W3        30.00F
STERLING*      CLOUDY    50  48  93 CALM        N/A
SAVANNA*       FOG       47  47  99 CALM      30.01F VSB 1/2
$$

ILZ003-004-008-010-011-017-018-230800-
NORTH CENTRAL ILLINOIS

CITY           SKY/WX    TMP DP  RH WIND       PRES   REMARKS
ROCKFORD       LGT RAIN  50  46  86 CALM      30.01F
FREEPORT*      CLOUDY    46  46  99 CALM      30.02S
ROCHELLE*      CLOUDY    49  47  96 CALM      29.99F
DE KALB*       CLOUDY    49  49  98 N7        29.99F
PERU*          CLOUDY    49  47  93 N9        29.98F
$$

ILZ005-006-012>014-019>023-230800-
NORTHEAST ILLINOIS

CITY           SKY/WX    TMP DP  RH WIND       PRES   REMARKS
CHICAGO-OHARE  LGT RAIN  52  50  93 N8        29.97F
CHICAGO-MIDWAY LGT RAIN  53  52  96 N12       29.96F
AURORA         LGT RAIN  51  50  96 N8        29.98F
LANSING*       HVY RAIN  54  54 100 N7        29.95F
JOLIET*        LGT RAIN  53  52  98 N6        29.96F
WAUKEGAN       LGT RAIN  51  50  96 NW5       29.97F FOG
DUPAGE AIRPORT LGT RAIN  51  50  96 N10       29.96F FOG
KANKAKEE*      RAIN      54  53  97 N6        29.94F
WHEELING       CLOUDY    52  52 100 N7        29.99F
MORRIS*        LGT RAIN  51  50  96 N5        29.96F
NORTHERLY ISL    N/A     53  50  89 NW12        N/A
$$

LMZ740>746-230800-
SOUTHERN LAKE MICHIGAN

STATION/POSITION SKY/WX   TEMP    WIND        PRES    VSBY  WAVE
                          AIR SEA DIR/SP/G                  HT/PER
                          (F)     (DEG/KT/KT) (MB)    (MI)  (FT/S)
SOUTHERN BUOY              54 60  360/ 14/ 16 1015.1          3/ 5
WILMETTE HARBOR            53 57  340/ 14/ 17   N/A           3/ 5
HARRISON CRIB              54     350/ 16/ 17   N/A
BURNHAM HARBOR             53     340/ 10/ 13   N/A
CALUMET HARBOR             54     340/ 11/ 15 1013.9F
BURNS HARBOR               57      40/ 11/ 13 1014.6F
MICHIGAN CITY              56      20/ 12/ 13   N/A
MICHIGAN CITY 6N           56 58   30/ 10/ 14   N/A           4/ 5
ST. JOSEPH                 57 59   60/ 10/ 12 1014.4F         3/ 6
$$

ILZ025>027-034>036-040-047-049-050-058-095>099-230800-
WEST-CENTRAL ILLINOIS

CITY           SKY/WX    TMP DP  RH WIND       PRES   REMARKS
QUINCY         CLOUDY    50  49  96 W5        30.01F
MACOMB*        CLOUDY    49  48  99 CALM      30.03F
JACKSONVILLE*  LGT RAIN  50  48  94 NW9       29.99F
PITTSFIELD*    CLOUDY    51  48  89 N6        30.01F
$$

ILZ028>032-037-038-041>044-048-051>054-059>061-230800-
CENTRAL ILLINOIS

CITY           SKY/WX    TMP DP  RH WIND       PRES   REMARKS
PONTIAC        LGT RAIN  52  51  98 N9        29.96F
BLOOMINGTON    RAIN      50  50 100 N15         N/A
DECATUR        LGT RAIN  52  51  97 N13       29.92F
PEORIA         CLOUDY    51  49  92 N7        29.98F
LACON*         CLOUDY    50  49  97 N7        29.98F
LINCOLN*       RAIN      52  52 100 NW6       29.96F
SPRINGFIELD    LGT RAIN  52  51  97 NW13      29.96F
TAYLORVILLE    DRIZZLE   50  50  99 NW14      29.95S
$$

ILZ033-039-045-046-055>057-062-063-230800-
EAST-CENTRAL ILLINOIS

CITY           SKY/WX    TMP DP  RH WIND       PRES   REMARKS
CHAMPAIGN      RAIN      54  52  93 N10       29.90F FOG
DANVILLE*      LGT RAIN  54  54  99 NE6       29.88F
RANTOUL*       RAIN      55  55  99 N9        29.91F
MATTOON        HVY RAIN  53  53 100 N9        29.86F FOG
PARIS*         HVY RAIN  56  56 100 NE7       29.88F
$$

ILZ079-100>102-230800-
SOUTHWEST ILLINOIS

CITY           SKY/WX    TMP DP  RH WIND       PRES   REMARKS
ALTON          RAIN      50  50 100 NW13G18   29.92F
CAHOKIA*       CLOUDY    54  50  86 NW9       29.96R
SPARTA*        CLOUDY    51  51  98 NW7       29.95F
$$

ILZ064>066-069>071-074>076-080>082-084>086-088>090-092>094-230800-
SOUTH-CENTRAL ILLINOIS

CITY           SKY/WX    TMP DP  RH WIND       PRES   REMARKS
CARBONDALE     CLOUDY    53  53 100 NW12      29.89F
EFFINGHAM*     HVY RAIN  54  54 100 W9        29.89S
MARION         CLOUDY    54  54  98 NW6       29.92S
MT. VERNON     LGT RAIN  53  52  96 VRB7      29.88F
CENTRALIA*     LGT RAIN  53  53  99 N18G26    29.87F
SALEM*         RAIN      54  51  92 NW17      29.88F
METROPOLIS*    CLOUDY    55  53  94 NW7       29.91S
$$

ILZ067-068-072-073-078-083-087-091-230800-
SOUTHEAST ILLINOIS

CITY           SKY/WX    TMP DP  RH WIND       PRES   REMARKS
LAWRENCEVILLE  HVY RAIN  65  32  29 SE12      29.85S
FLORA*         RAIN      56  55  95 NW16      29.83R
FAIRFIELD*     RAIN      54  54 100 NW6       29.85F
HARRISBURG*    CLOUDY    55  55  98 N12G17    29.88F
ROBINSON*      RAIN      64  64 100 SE18      29.86F
CARMI*         RAIN      56  55  97 W10G17    29.85R
$$

ABBREVIATIONS USED IN REMARKS
   TC - TEMPERATURE IN CELSIUS
  WCI - WIND CHILL INDEX
   HX - HEAT INDEX
  VSB - VISIBILITY
$$





USA.gov is the U.S. government's official web portal to all federal, state and local government web resources and services.